Time,TemperatureF,DewpointF,PressureIn,WindDirection,WindDirectionDegrees,WindSpeedMPH,WindSpeedGustMPH,Humidity,HourlyPrecipIn,Conditions,Clouds,dailyrainin,SoftwareType,DateUTC
2013-04-30 00:01:00,35.0,28.0,-100.00,NNW,335,25.0,33.0,74,-99.99,,,-99.99,,2013-04-30 06:01:00,
2013-04-30 00:11:00,35.0,29.0,-100.00,NW,305,16.0,30.0,78,-99.99,,,-99.99,,2013-04-30 06:11:00,
2013-04-30 00:21:00,35.0,29.0,-100.00,NW,320,10.0,24.0,78,-99.99,,,-99.99,,2013-04-30 06:21:00,
2013-04-30 00:31:00,36.0,29.0,-100.00,NW,315,9.0,16.0,74,-99.99,,,-99.99,,2013-04-30 06:31:00,
2013-04-30 00:41:00,36.0,28.0,-100.00,NW,320,4.0,9.0,73,-99.99,,,-99.99,,2013-04-30 06:41:00,
2013-04-30 00:52:00,36.0,28.0,-100.00,NW,315,2.0,6.0,72,-99.99,,,-99.99,,2013-04-30 06:52:00,
2013-04-30 01:01:00,36.0,28.0,-100.00,NE,50,1.0,2.0,72,-99.99,,,-99.99,,2013-04-30 07:01:00,
2013-04-30 01:11:00,36.0,27.0,-100.00,NNW,340,1.0,3.0,70,-99.99,,,-99.99,,2013-04-30 07:11:00,
2013-04-30 01:21:00,36.0,26.0,-100.00,NW,315,5.0,6.0,66,-99.99,,,-99.99,,2013-04-30 07:21:00,
2013-04-30 01:31:00,36.0,25.0,-100.00,NNW,330,9.0,11.0,62,-99.99,,,-99.99,,2013-04-30 07:31:00,
2013-04-30 01:41:00,38.0,22.0,-100.00,NNW,335,15.0,17.0,53,-99.99,,,-99.99,,2013-04-30 07:41:00,
2013-04-30 01:52:00,38.0,17.0,-100.00,North,350,20.0,30.0,41,-99.99,,,-99.99,,2013-04-30 07:52:00,
2013-04-30 02:02:00,38.0,13.0,-100.00,North,355,26.0,31.0,35,-99.99,,,-99.99,,2013-04-30 08:02:00,
2013-04-30 02:11:00,38.0,13.0,-100.00,NNW,345,24.0,31.0,35,-99.99,,,-99.99,,2013-04-30 08:11:00,
2013-04-30 02:21:00,37.0,12.0,-100.00,NNW,345,19.0,27.0,35,-99.99,,,-99.99,,2013-04-30 08:21:00,
2013-04-30 02:32:00,37.0,13.0,-100.00,NNW,340,14.0,20.0,37,-99.99,,,-99.99,,2013-04-30 08:32:00,
2013-04-30 02:52:00,36.0,14.0,-100.00,NNW,340,7.0,14.0,40,-99.99,,,-99.99,,2013-04-30 08:52:00,
2013-04-30 03:01:00,35.0,15.0,-100.00,North,0,6.0,9.0,42,-99.99,,,-99.99,,2013-04-30 09:01:00,
2013-04-30 03:11:00,34.0,15.0,-100.00,NNE,20,6.0,10.0,44,-99.99,,,-99.99,,2013-04-30 09:11:00,
2013-04-30 03:22:00,34.0,14.0,-100.00,NE,40,5.0,8.0,43,-99.99,,,-99.99,,2013-04-30 09:22:00,
2013-04-30 03:33:00,34.0,15.0,-100.00,NNE,20,6.0,7.0,43,-99.99,,,-99.99,,2013-04-30 09:33:00,
2013-04-30 03:43:00,34.0,14.0,-100.00,North,5,6.0,7.0,43,-99.99,,,-99.99,,2013-04-30 09:43:00,
2013-04-30 03:52:00,35.0,14.0,-100.00,North,10,6.0,7.0,42,-99.99,,,-99.99,,2013-04-30 09:52:00,
2013-04-30 04:03:00,34.0,15.0,-100.00,NNE,30,8.0,10.0,45,-99.99,,,-99.99,,2013-04-30 10:03:00,
2013-04-30 04:11:00,34.0,15.0,-100.00,NNE,15,8.0,10.0,45,-99.99,,,-99.99,,2013-04-30 10:11:00,
2013-04-30 04:22:00,35.0,15.0,-100.00,North,355,7.0,11.0,44,-99.99,,,-99.99,,2013-04-30 10:22:00,
2013-04-30 04:32:00,34.0,17.0,-100.00,NNW,335,6.0,7.0,48,-99.99,,,-99.99,,2013-04-30 10:32:00,
2013-04-30 04:41:00,34.0,18.0,-100.00,North,355,7.0,8.0,50,-99.99,,,-99.99,,2013-04-30 10:41:00,
2013-04-30 04:52:00,35.0,16.0,-100.00,NNW,340,9.0,12.0,46,-99.99,,,-99.99,,2013-04-30 10:52:00,
2013-04-30 05:02:00,35.0,16.0,-100.00,North,350,7.0,14.0,46,-99.99,,,-99.99,,2013-04-30 11:02:00,
2013-04-30 05:11:00,34.0,16.0,-100.00,North,350,6.0,10.0,46,-99.99,,,-99.99,,2013-04-30 11:11:00,
2013-04-30 05:21:00,34.0,16.0,-100.00,North,350,6.0,7.0,46,-99.99,,,-99.99,,2013-04-30 11:21:00,
2013-04-30 05:31:00,34.0,16.0,-100.00,North,350,7.0,10.0,47,-99.99,,,-99.99,,2013-04-30 11:31:00,
2013-04-30 05:51:00,33.0,16.0,-100.00,NNW,340,12.0,13.0,49,-99.99,,,-99.99,,2013-04-30 11:51:00,
2013-04-30 06:01:00,33.0,16.0,-100.00,NNW,340,12.0,14.0,48,-99.99,,,-99.99,,2013-04-30 12:01:00,
2013-04-30 06:11:00,33.0,15.0,-100.00,NNW,335,12.0,14.0,46,-99.99,,,-99.99,,2013-04-30 12:11:00,
2013-04-30 06:21:00,33.0,16.0,-100.00,NNW,330,7.0,12.0,48,-99.99,,,-99.99,,2013-04-30 12:21:00,
2013-04-30 06:31:00,33.0,16.0,-100.00,NNW,330,9.0,11.0,48,-99.99,,,-99.99,,2013-04-30 12:31:00,
2013-04-30 06:41:00,33.0,16.0,-100.00,NNW,330,9.0,12.0,48,-99.99,,,-99.99,,2013-04-30 12:41:00,
2013-04-30 06:51:00,34.0,14.0,-100.00,NNW,335,12.0,14.0,43,-99.99,,,-99.99,,2013-04-30 12:51:00,
2013-04-30 07:01:00,33.0,15.0,-100.00,NNW,330,9.0,12.0,45,-99.99,,,-99.99,,2013-04-30 13:01:00,
2013-04-30 07:11:00,34.0,15.0,-100.00,NNW,330,11.0,13.0,45,-99.99,,,-99.99,,2013-04-30 13:11:00,
2013-04-30 07:21:00,34.0,14.0,-100.00,NNW,340,10.0,16.0,43,-99.99,,,-99.99,,2013-04-30 13:21:00,
2013-04-30 07:31:00,34.0,14.0,-100.00,NW,325,11.0,13.0,43,-99.99,,,-99.99,,2013-04-30 13:31:00,
2013-04-30 07:41:00,35.0,15.0,-100.00,NNW,330,12.0,16.0,43,-99.99,,,-99.99,,2013-04-30 13:41:00,
2013-04-30 07:51:00,35.0,14.0,-100.00,NNW,340,12.0,18.0,41,-99.99,,,-99.99,,2013-04-30 13:51:00,
2013-04-30 08:02:00,35.0,13.0,-100.00,NNW,345,12.0,18.0,41,-99.99,,,-99.99,,2013-04-30 14:02:00,
2013-04-30 08:11:00,35.0,13.0,-100.00,NNW,335,19.0,22.0,39,-99.99,,,-99.99,,2013-04-30 14:11:00,
2013-04-30 08:21:00,35.0,12.0,-100.00,NNW,335,19.0,24.0,38,-99.99,,,-99.99,,2013-04-30 14:21:00,
2013-04-30 08:31:00,35.0,13.0,-100.00,North,350,19.0,22.0,39,-99.99,,,-99.99,,2013-04-30 14:31:00,
2013-04-30 08:41:00,35.0,12.0,-100.00,NNW,345,19.0,27.0,39,-99.99,,,-99.99,,2013-04-30 14:41:00,
2013-04-30 08:52:00,35.0,12.0,-100.00,NNW,335,21.0,24.0,38,-99.99,,,-99.99,,2013-04-30 14:52:00,
2013-04-30 09:01:00,35.0,12.0,-100.00,NNW,335,19.0,26.0,38,-99.99,,,-99.99,,2013-04-30 15:01:00,
2013-04-30 09:11:00,35.0,13.0,-100.00,NNW,335,17.0,24.0,39,-99.99,,,-99.99,,2013-04-30 15:11:00,
2013-04-30 09:21:00,35.0,13.0,-100.00,North,350,17.0,26.0,39,-99.99,,,-99.99,,2013-04-30 15:21:00,
2013-04-30 09:32:00,36.0,14.0,-100.00,NNW,340,17.0,24.0,39,-99.99,,,-99.99,,2013-04-30 15:32:00,
2013-04-30 09:42:00,36.0,12.0,-100.00,NNW,340,19.0,24.0,37,-99.99,,,-99.99,,2013-04-30 15:42:00,
2013-04-30 09:52:00,36.0,12.0,-100.00,NNW,345,16.0,26.0,36,-99.99,,,-99.99,,2013-04-30 15:52:00,
2013-04-30 10:02:00,37.0,12.0,-100.00,North,355,20.0,26.0,35,-99.99,,,-99.99,,2013-04-30 16:02:00,
2013-04-30 10:12:00,37.0,11.0,-100.00,North,5,26.0,30.0,33,-99.99,,,-99.99,,2013-04-30 16:12:00,
2013-04-30 10:22:00,37.0,11.0,-100.00,North,0,27.0,32.0,33,-99.99,,,-99.99,,2013-04-30 16:22:00,
2013-04-30 10:33:00,37.0,11.0,-100.00,North,0,24.0,30.0,33,-99.99,,,-99.99,,2013-04-30 16:33:00,
2013-04-30 10:42:00,37.0,10.0,-100.00,North,0,17.0,28.0,32,-99.99,,,-99.99,,2013-04-30 16:42:00,
2013-04-30 10:52:00,38.0,11.0,-100.00,North,0,19.0,29.0,32,-99.99,,,-99.99,,2013-04-30 16:52:00,
2013-04-30 11:02:00,38.0,11.0,-100.00,North,350,19.0,30.0,31,-99.99,,,-99.99,,2013-04-30 17:02:00,
2013-04-30 11:12:00,37.0,10.0,-100.00,North,0,18.0,27.0,32,-99.99,,,-99.99,,2013-04-30 17:12:00,
2013-04-30 11:22:00,37.0,10.0,-100.00,North,0,22.0,27.0,32,-99.99,,,-99.99,,2013-04-30 17:22:00,
2013-04-30 11:32:00,38.0,11.0,-100.00,North,350,18.0,27.0,32,-99.99,,,-99.99,,2013-04-30 17:32:00,
2013-04-30 11:42:00,38.0,10.0,-100.00,NNW,345,20.0,26.0,31,-99.99,,,-99.99,,2013-04-30 17:42:00,
2013-04-30 11:52:00,39.0,12.0,-100.00,NNW,340,19.0,28.0,32,-99.99,,,-99.99,,2013-04-30 17:52:00,
2013-04-30 12:01:00,39.0,11.0,-100.00,North,0,20.0,29.0,31,-99.99,,,-99.99,,2013-04-30 18:01:00,
2013-04-30 12:11:00,39.0,11.0,-100.00,North,0,17.0,28.0,31,-99.99,,,-99.99,,2013-04-30 18:11:00,
2013-04-30 12:22:00,39.0,11.0,-100.00,North,5,14.0,27.0,31,-99.99,,,-99.99,,2013-04-30 18:22:00,
2013-04-30 12:32:00,39.0,11.0,-100.00,North,5,21.0,26.0,31,-99.99,,,-99.99,,2013-04-30 18:32:00,
2013-04-30 12:41:00,40.0,12.0,-100.00,NNW,345,12.0,28.0,31,-99.99,,,-99.99,,2013-04-30 18:41:00,
2013-04-30 12:51:00,40.0,11.0,-100.00,NNW,330,19.0,25.0,30,-99.99,,,-99.99,,2013-04-30 18:51:00,
2013-04-30 13:01:00,40.0,12.0,-100.00,NW,320,19.0,29.0,31,-99.99,,,-99.99,,2013-04-30 19:01:00,
2013-04-30 13:11:00,40.0,11.0,-100.00,NNW,345,22.0,29.0,29,-99.99,,,-99.99,,2013-04-30 19:11:00,
2013-04-30 13:21:00,41.0,11.0,-100.00,NW,320,19.0,25.0,29,-99.99,,,-99.99,,2013-04-30 19:21:00,
2013-04-30 13:32:00,40.0,10.0,-100.00,NNW,345,19.0,26.0,29,-99.99,,,-99.99,,2013-04-30 19:32:00,
2013-04-30 13:42:00,41.0,11.0,-100.00,NNW,340,14.0,20.0,28,-99.99,,,-99.99,,2013-04-30 19:42:00,
2013-04-30 13:52:00,40.0,10.0,-100.00,NNW,345,19.0,24.0,28,-99.99,,,-99.99,,2013-04-30 19:52:00,
2013-04-30 14:02:00,42.0,11.0,-100.00,NNW,335,13.0,19.0,27,-99.99,,,-99.99,,2013-04-30 20:02:00,
2013-04-30 14:11:00,41.0,10.0,-100.00,NNW,335,12.0,27.0,27,-99.99,,,-99.99,,2013-04-30 20:11:00,
2013-04-30 14:21:00,40.0,10.0,-100.00,North,5,14.0,24.0,27,-99.99,,,-99.99,,2013-04-30 20:21:00,
2013-04-30 14:32:00,41.0,10.0,-100.00,NW,315,13.0,23.0,27,-99.99,,,-99.99,,2013-04-30 20:32:00,
2013-04-30 14:42:00,41.0,11.0,-100.00,NNW,345,22.0,27.0,28,-99.99,,,-99.99,,2013-04-30 20:42:00,
2013-04-30 14:52:00,41.0,11.0,-100.00,North,10,12.0,23.0,28,-99.99,,,-99.99,,2013-04-30 20:52:00,
2013-04-30 15:01:00,40.0,11.0,-100.00,North,5,18.0,23.0,29,-99.99,,,-99.99,,2013-04-30 21:01:00,
2013-04-30 15:11:00,41.0,11.0,-100.00,North,0,11.0,24.0,29,-99.99,,,-99.99,,2013-04-30 21:11:00,
2013-04-30 15:22:00,41.0,11.0,-100.00,NW,315,18.0,24.0,28,-99.99,,,-99.99,,2013-04-30 21:22:00,
2013-04-30 15:32:00,42.0,11.0,-100.00,NW,325,12.0,20.0,27,-99.99,,,-99.99,,2013-04-30 21:32:00,
2013-04-30 15:42:00,42.0,10.0,-100.00,NW,320,15.0,23.0,26,-99.99,,,-99.99,,2013-04-30 21:42:00,
2013-04-30 15:52:00,41.0,11.0,-100.00,NW,310,13.0,24.0,27,-99.99,,,-99.99,,2013-04-30 21:52:00,
2013-04-30 16:02:00,41.0,10.0,-100.00,NNW,330,18.0,22.0,27,-99.99,,,-99.99,,2013-04-30 22:02:00,
2013-04-30 16:12:00,41.0,10.0,-100.00,NNW,335,22.0,28.0,27,-99.99,,,-99.99,,2013-04-30 22:12:00,
2013-04-30 16:22:00,40.0,10.0,-100.00,NNW,340,16.0,24.0,27,-99.99,,,-99.99,,2013-04-30 22:22:00,
2013-04-30 16:32:00,40.0,10.0,-100.00,NNW,345,10.0,24.0,29,-99.99,,,-99.99,,2013-04-30 22:32:00,
2013-04-30 16:41:00,37.0,12.0,-100.00,NNE,20,21.0,30.0,34,-99.99,,,-99.99,,2013-04-30 22:41:00,
2013-04-30 16:52:00,37.0,15.0,-100.00,North,10,16.0,24.0,40,-99.99,,,-99.99,,2013-04-30 22:52:00,
2013-04-30 17:02:00,37.0,16.0,-100.00,NNE,25,13.0,19.0,40,-99.99,,,-99.99,,2013-04-30 23:02:00,
2013-04-30 17:12:00,38.0,15.0,-100.00,NNW,345,7.0,16.0,37,-99.99,,,-99.99,,2013-04-30 23:12:00,
2013-04-30 17:21:00,36.0,16.0,-100.00,North,0,23.0,27.0,43,-99.99,,,-99.99,,2013-04-30 23:21:00,
2013-04-30 17:32:00,35.0,19.0,-100.00,North,350,12.0,24.0,51,-99.99,,,-99.99,,2013-04-30 23:32:00,
2013-04-30 17:42:00,36.0,20.0,-100.00,NW,325,12.0,17.0,53,-99.99,,,-99.99,,2013-04-30 23:42:00,
2013-04-30 17:52:00,34.0,23.0,-100.00,NNW,335,9.0,12.0,63,-99.99,,,-99.99,,2013-04-30 23:52:00,
2013-04-30 18:02:00,31.0,26.0,-100.00,North,10,16.0,21.0,82,-99.99,,,-99.99,,2013-05-01 00:02:00,
2013-04-30 18:11:00,31.0,29.0,-100.00,North,0,11.0,17.0,89,-99.99,,,-99.99,,2013-05-01 00:11:00,
2013-04-30 18:21:00,32.0,29.0,-100.00,North,355,14.0,17.0,90,-99.99,,,-99.99,,2013-05-01 00:21:00,
2013-04-30 18:32:00,31.0,30.0,-100.00,North,0,12.0,16.0,92,-99.99,,,-99.99,,2013-05-01 00:32:00,
2013-04-30 18:42:00,31.0,30.0,-100.00,North,0,9.0,14.0,93,-99.99,,,-99.99,,2013-05-01 00:42:00,
2013-04-30 18:51:00,31.0,30.0,-100.00,NNW,340,8.0,11.0,94,-99.99,,,-99.99,,2013-05-01 00:51:00,
2013-04-30 19:01:00,31.0,30.0,-100.00,NNW,345,7.0,12.0,94,-99.99,,,-99.99,,2013-05-01 01:01:00,
2013-04-30 19:11:00,31.0,30.0,-100.00,NNW,345,11.0,14.0,94,-99.99,,,-99.99,,2013-05-01 01:11:00,
2013-04-30 19:21:00,31.0,30.0,-100.00,North,350,10.0,18.0,94,-99.99,,,-99.99,,2013-05-01 01:21:00,
2013-04-30 19:31:00,31.0,30.0,-100.00,North,350,12.0,17.0,94,-99.99,,,-99.99,,2013-05-01 01:31:00,
2013-04-30 19:41:00,32.0,30.0,-100.00,North,0,7.0,12.0,94,-99.99,,,-99.99,,2013-05-01 01:41:00,
2013-04-30 19:52:00,31.0,30.0,-100.00,NNW,345,12.0,17.0,93,-99.99,,,-99.99,,2013-05-01 01:52:00,
2013-04-30 20:02:00,31.0,30.0,-100.00,North,350,10.0,14.0,93,-99.99,,,-99.99,,2013-05-01 02:02:00,
2013-04-30 20:11:00,32.0,29.0,-100.00,NNW,335,10.0,14.0,90,-99.99,,,-99.99,,2013-05-01 02:11:00,
2013-04-30 20:21:00,32.0,29.0,-100.00,North,0,9.0,13.0,87,-99.99,,,-99.99,,2013-05-01 02:21:00,
2013-04-30 20:32:00,31.0,28.0,-100.00,NNW,340,9.0,14.0,87,-99.99,,,-99.99,,2013-05-01 02:32:00,
2013-04-30 20:42:00,31.0,28.0,-100.00,NNW,345,9.0,14.0,87,-99.99,,,-99.99,,2013-05-01 02:42:00,
2013-04-30 20:51:00,31.0,28.0,-100.00,NNE,15,9.0,11.0,87,-99.99,,,-99.99,,2013-05-01 02:51:00,
2013-04-30 21:01:00,31.0,28.0,-100.00,North,10,7.0,11.0,87,-99.99,,,-99.99,,2013-05-01 03:01:00,
2013-04-30 21:11:00,31.0,28.0,-100.00,North,350,14.0,16.0,86,-99.99,,,-99.99,,2013-05-01 03:11:00,
2013-04-30 21:21:00,31.0,27.0,-100.00,NNW,345,14.0,18.0,87,-99.99,,,-99.99,,2013-05-01 03:21:00,
2013-04-30 21:33:00,30.0,28.0,-100.00,NNW,345,12.0,16.0,90,-99.99,,,-99.99,,2013-05-01 03:33:00,
2013-04-30 21:42:00,30.0,28.0,-100.00,North,350,11.0,14.0,90,-99.99,,,-99.99,,2013-05-01 03:42:00,
2013-04-30 21:52:00,30.0,28.0,-100.00,NNW,340,12.0,16.0,91,-99.99,,,-99.99,,2013-05-01 03:52:00,
2013-04-30 22:03:00,30.0,28.0,-100.00,NNW,345,11.0,14.0,92,-99.99,,,-99.99,,2013-05-01 04:03:00,
2013-04-30 22:12:00,30.0,28.0,-100.00,NNW,345,11.0,13.0,93,-99.99,,,-99.99,,2013-05-01 04:12:00,
2013-04-30 22:22:00,30.0,29.0,-100.00,North,350,10.0,12.0,94,-99.99,,,-99.99,,2013-05-01 04:22:00,
2013-04-30 22:32:00,30.0,29.0,-100.00,North,350,9.0,14.0,94,-99.99,,,-99.99,,2013-05-01 04:32:00,
2013-04-30 22:42:00,30.0,29.0,-100.00,North,0,10.0,13.0,94,-99.99,,,-99.99,,2013-05-01 04:42:00,
2013-04-30 22:52:00,30.0,28.0,-100.00,North,350,13.0,16.0,94,-99.99,,,-99.99,,2013-05-01 04:52:00,
2013-04-30 23:02:00,30.0,29.0,-100.00,NNW,345,11.0,15.0,95,-99.99,,,-99.99,,2013-05-01 05:02:00,
2013-04-30 23:11:00,29.0,28.0,-100.00,NNW,330,12.0,14.0,95,-99.99,,,-99.99,,2013-05-01 05:11:00,
2013-04-30 23:21:00,29.0,28.0,-100.00,NW,325,9.0,12.0,95,-99.99,,,-99.99,,2013-05-01 05:21:00,
2013-04-30 23:32:00,29.0,27.0,-100.00,NNW,340,7.0,11.0,95,-99.99,,,-99.99,,2013-05-01 05:32:00,
2013-04-30 23:41:00,29.0,27.0,-100.00,NNW,340,7.0,10.0,94,-99.99,,,-99.99,,2013-05-01 05:41:00,
2013-04-30 23:52:00,29.0,26.0,-100.00,NNW,340,9.0,9.0,91,-99.99,,,-99.99,,2013-05-01 05:52:00,